This is the latest recevied weather packets stored in our database for station/object K4AMF. If no packets are shown the sender has not sent any weather packets the latest 10 day(s).
| Time | Temp. | Humidity | Pressure | Rain* | Wind** | Luminosity | Snow |
|---|---|---|---|---|---|---|---|
| 1778021177 | 25° C | 55% | 1016.1 hPa | 0 mm | - | 53 W/m² | - |
| 1778020874 | 25° C | 54% | 1016.1 hPa | 0 mm | - | 74 W/m² | - |
| 1778020571 | 25.56° C | 54% | 1016.1 hPa | 0 mm | - | 98 W/m² | - |
| 1778020268 | 25° C | 54% | 1016.3 hPa | 0 mm | - | 169 W/m² | - |
| 1778019964 | 25.56° C | 53% | 1016 hPa | 0 mm | - | 193 W/m² | - |
| 1778019660 | 25.56° C | 53% | 1016.1 hPa | 0 mm | - | 196 W/m² | - |
| 1778019357 | 25.56° C | 53% | 1016.1 hPa | 0 mm | - | 216 W/m² | - |
| 1778019053 | 25.56° C | 54% | 1016 hPa | 0 mm | - | 223 W/m² | - |
| 1778018751 | 26.11° C | 53% | 1016.2 hPa | 0 mm | - | 246 W/m² | - |
| 1778018449 | 26.11° C | 54% | 1016.1 hPa | 0 mm | - | 255 W/m² | - |
| 1778018147 | 25.56° C | 54% | 1016 hPa | 0 mm | - | 260 W/m² | - |
| 1778017844 | 25.56° C | 54% | 1016 hPa | 0 mm | - | 284 W/m² | - |
| 1778017542 | 25.56° C | 55% | 1016.3 hPa | 0 mm | - | 292 W/m² | - |
| 1778017239 | 26.11° C | 55% | 1016.1 hPa | 0 mm | - | 107 W/m² | - |
| 1778016937 | 26.67° C | 53% | 1016 hPa | 0 mm | - | 270 W/m² | - |
| 1778016632 | 26.11° C | 53% | 1016.1 hPa | 0 mm | - | 361 W/m² | - |
| 1778016329 | 26.67° C | 53% | 1016.1 hPa | 0 mm | - | 370 W/m² | - |
| 1778016026 | 26.67° C | 53% | 1016.1 hPa | 0 mm | - | 380 W/m² | - |
| 1778015723 | 26.67° C | 52% | 1016 hPa | 0 mm | - | 411 W/m² | - |
| 1778015420 | 26.67° C | 52% | 1016.1 hPa | 0 mm | - | 425 W/m² | - |
| 1778015117 | 26.67° C | 52% | 1016 hPa | 0 mm | - | 435 W/m² | - |
| 1778014814 | 26.67° C | 52% | 1016 hPa | 0 mm | - | 390 W/m² | - |
| 1778014512 | 27.22° C | 52% | 1016.1 hPa | 0 mm | - | 447 W/m² | - |
| 1778014209 | 26.67° C | 53% | 1016.2 hPa | 0 mm | - | 430 W/m² | - |
| 1778013907 | 26.67° C | 53% | 1016 hPa | 0 mm | - | 256 W/m² | - |
* Rain latest hour (hover to see other rain measurements)
** Current wind speed in m/s (hover to see current wind gust speed)